Location: Bodham
(52.9000°N, 1.1667°E)
Time: 14:21:21
(UTC+00:00)

Cosmos 2112 Rocket - Pass Details

Date: 17 October 2025
Orbit: 753 x 782 km, 74.0° (Epoch: 13 November)

Event Time Altitude Azimuth Distance (km) Brightness Sun altitude
Rises 05:16:01 0° 334° (NNW) 3,251 7.0 -11.2°
Reaches altitude 10° 05:18:25 10° 335° (NNW) 2,316 6.2 -10.8°
Maximum altitude 05:23:41 82° 64° (ENE) 775 4.1 -10.0°
Drops below altitude 10° 05:28:52 10° 152° (SSE) 2,282 6.9 -9.2°
Sets 05:31:13 0° 154° (SSE) 3,200 7.7 -8.9°
